| time (UTC) | temp F | wind direction | speed MPH | gust MPH | rain 1hr in | rain 24hr in | rain mn in | humidity % | barometer mb |
| 20260502191523 | 55 | 328 | 1.0 | 9.0 | 0.00 | 0.78 | 0.77 | 42 | 1012.7 |
| 20260502190020 | 54 | 328 | 4.0 | 11.0 | 0.00 | 0.78 | 0.77 | 44 | 1013.0 |
| 20260502184521 | 54 | 275 | 5.0 | 11.0 | 0.00 | 0.78 | 0.77 | 53 | 1013.2 |
| 20260502183017 | 56 | 314 | 6.0 | 11.0 | 0.00 | 0.78 | 0.77 | 48 | 1013.3 |
| 20260502181516 | 56 | 280 | 7.0 | 12.0 | 0.00 | 0.78 | 0.77 | 52 | 1013.3 |
| 20260502163010 | 52 | 336 | 0.0 | 3.0 | 0.00 | 0.78 | 0.77 | 51 | 1013.9 |
| 20260502161509 | 53 | 288 | 3.0 | 8.0 | 0.00 | 0.78 | 0.77 | 51 | 1014.2 |
| 20260502151506 | 52 | 245 | 4.0 | 10.0 | 0.00 | 0.78 | 0.77 | 63 | 1014.3 |
| 20260502123052 | 45 | 284 | 1.0 | 11.0 | 0.00 | 0.78 | 0.77 | 73 | 1014.5 |
| 20260502121554 | 45 | 296 | 1.0 | 7.0 | 0.00 | 0.78 | 0.77 | 76 | 1014.6 |
| 20260502114556 | 43 | 305 | 0.0 | 2.0 | 0.00 | 0.78 | 0.77 | 81 | 1014.4 |
| 20260502113047 | 43 | 307 | 0.0 | 3.0 | 0.00 | 0.78 | 0.77 | 81 | 1014.2 |
| 20260502111551 | 43 | 309 | 0.0 | 1.0 | 0.00 | 0.78 | 0.77 | 82 | 1014.2 |
| 20260502110047 | 43 | 301 | 0.0 | 3.0 | 0.00 | 0.78 | 0.77 | 83 | 1014.2 |
| 20260502104551 | 43 | 331 | 0.0 | 2.0 | 0.00 | 0.78 | 0.77 | 84 | 1014.2 |
| 20260502103046 | 43 | 60 | 0.0 | 4.0 | 0.00 | 0.78 | 0.77 | 87 | 1014.3 |
| 20260502101544 | 43 | 254 | 1.0 | 4.0 | 0.00 | 0.78 | 0.77 | 86 | 1014.0 |
| 20260502091532 | 0 | 0.0 | 0.0 | 0.00 | 0.78 | 0.77 | 1013.4 | ||
| 20260502071532 | 47 | 304 | 2.0 | 6.0 | 0.00 | 0.78 | 0.77 | 93 | 1012.1 |
| 20260502070014 | 47 | 49 | 0.0 | 1.0 | 0.00 | 0.78 | 0.77 | 94 | 1012.0 |
| 20260502064513 | 47 | 261 | 0.0 | 2.0 | 0.00 | 0.78 | 0.77 | 93 | 1012.0 |
| 20260502063010 | 48 | 224 | 0.0 | 1.0 | 0.00 | 0.78 | 0.77 | 94 | 1012.2 |
| 20260502061506 | 48 | 335 | 0.0 | 1.0 | 0.75 | 0.78 | 0.77 | 94 | 1012.3 |
| 20260502060005 | 48 | 335 | 0.0 | 0.0 | 0.75 | 0.78 | 0.77 | 93 | 1012.5 |
| 20260502054512 | 48 | 224 | 0.0 | 0.0 | 0.75 | 0.78 | 0.77 | 93 | 1012.4 |
| 20260502053101 | 48 | 224 | 0.0 | 0.0 | 0.76 | 0.78 | 0.77 | 92 | 1012.5 |
| 20260502051645 | 0 | 0.0 | 0.0 | 0.02 | 0.03 | 0.02 | 1012.6 | ||
| 20260502050052 | 49 | 153 | 0.0 | 0.0 | 0.03 | 0.03 | 0.02 | 1012.7 | |
| 20260502044554 | 49 | 198 | 0.0 | 0.0 | 0.03 | 0.03 | 0.02 | 91 | 1012.7 |
| 20260502043050 | 49 | 198 | 0.0 | 0.0 | 0.02 | 0.02 | 0.01 | 90 | 1012.7 |
| 20260502041545 | 49 | 198 | 0.0 | 0.0 | 0.01 | 0.01 | 0.00 | 88 | 1012.8 |
| 20260502040044 | 50 | 319 | 0.0 | 0.0 | 0.00 | 0.00 | 0.00 | 87 | 1012.7 |
| 20260502034546 | 50 | 319 | 0.0 | 2.0 | 0.00 | 0.00 | 0.00 | 84 | 1012.4 |
| 20260502033052 | 50 | 325 | 0.0 | 3.0 | 0.00 | 0.00 | 0.00 | 84 | 1012.6 |
| 20260502031605 | 51 | 314 | 0.0 | 2.0 | 0.00 | 0.00 | 0.00 | 81 | 1012.8 |
| 20260502030047 | 51 | 283 | 0.0 | 3.0 | 0.00 | 0.00 | 0.00 | 80 | 1012.4 |
| 20260502024553 | 51 | 300 | 1.0 | 4.0 | 0.00 | 0.00 | 0.00 | 81 | 1012.2 |
| 20260502023044 | 51 | 315 | 0.0 | 3.0 | 0.00 | 0.00 | 0.00 | 83 | 1012.3 |
| 20260502021543 | 51 | 313 | 0.0 | 2.0 | 0.00 | 0.00 | 0.00 | 82 | 1012.1 |
| 20260502020047 | 52 | 1 | 0.0 | 2.0 | 0.00 | 0.00 | 0.00 | 81 | 1012.1 |
| 20260502014543 | 52 | 304 | 0.0 | 3.0 | 0.00 | 0.00 | 0.00 | 81 | 1012.1 |
| 20260502013042 | 52 | 48 | 0.0 | 1.0 | 0.00 | 0.00 | 0.00 | 81 | 1011.6 |
| 20260502011548 | 52 | 86 | 0.0 | 1.0 | 0.00 | 0.00 | 0.00 | 81 | 1011.4 |
| 20260502010044 | 52 | 138 | 0.0 | 1.0 | 0.00 | 0.00 | 0.00 | 81 | 1011.2 |
| 20260502004542 | 52 | 105 | 0.0 | 2.0 | 0.00 | 0.00 | 0.00 | 82 | 1011.1 |
| 20260502003041 | 52 | 114 | 0.0 | 6.0 | 0.00 | 0.00 | 0.00 | 83 | 1011.0 |
| 20260502001543 | 52 | 103 | 0.0 | 0.0 | 0.00 | 0.00 | 0.00 | 84 | 1010.6 |
| 20260502000040 | 52 | 103 | 0.0 | 2.0 | 0.00 | 0.00 | 0.00 | 82 | 1010.7 |
| 20260501234550 | 52 | 41 | 0.0 | 3.0 | 0.00 | 0.00 | 0.00 | 79 | 1010.6 |
| 20260501233039 | 53 | 294 | 1.0 | 5.0 | 0.00 | 0.00 | 0.00 | 78 | 1010.6 |
| 20260501231548 | 0 | 0.0 | 0.0 | 0.00 | 0.00 | 0.00 | 1010.7 | ||
| 20260501230033 | 58 | 337 | 8.0 | 17.0 | 0.00 | 0.00 | 0.00 | 56 | 1010.8 |
| 20260501224532 | 59 | 281 | 6.0 | 11.0 | 0.00 | 0.00 | 0.00 | 50 | 1010.3 |
| 20260501223032 | 60 | 309 | 3.0 | 7.0 | 0.00 | 0.00 | 0.00 | 51 | 1010.2 |
| 20260501221533 | 60 | 311 | 3.0 | 7.0 | 0.00 | 0.00 | 0.00 | 47 | 1010.1 |
| 20260501220031 | 60 | 316 | 0.0 | 4.0 | 0.00 | 0.00 | 0.00 | 50 | 1010.3 |
| 20260501214544 | 61 | 330 | 2.0 | 6.0 | 0.00 | 0.00 | 0.00 | 43 | 1010.3 |
| 20260501213034 | 61 | 227 | 1.0 | 6.0 | 0.00 | 0.00 | 0.00 | 44 | 1010.0 |
| 20260501211532 | 61 | 202 | 0.0 | 7.0 | 0.00 | 0.00 | 0.00 | 45 | 1010.0 |
| 20260501210030 | 61 | 293 | 0.0 | 9.0 | 0.00 | 0.00 | 0.00 | 46 | 1010.2 |
| 20260501204530 | 62 | 232 | 1.0 | 6.0 | 0.00 | 0.00 | 0.00 | 45 | 1010.2 |
| 20260501203029 | 62 | 153 | 1.0 | 7.0 | 0.00 | 0.00 | 0.00 | 44 | 1010.1 |
| 20260501201527 | 0 | 0.0 | 0.0 | 0.00 | 0.00 | 0.00 | 1010.4 | ||
| 20260501200023 | 62 | 91 | 0.0 | 5.0 | 0.00 | 0.00 | 0.00 | 45 | 1010.5 |
| 20260501194519 | 62 | 175 | 0.0 | 5.0 | 0.00 | 0.00 | 0.00 | 45 | 1010.8 |
| 20260501193026 | 62 | 141 | 1.0 | 6.0 | 0.00 | 0.00 | 0.00 | 47 | 1011.0 |